Tehachapi, CA

2:00 PM PST on December 08, 2019 (GMT -0800)
Tehachapi Municipal

Weather History for KTSP - October, 2019

Change the Weather History Date:

Wednesday, October 16, 2019

  Actual Average Record
Temperature  
Mean Temperature 56 °F -  
Max Temperature 75 °F 70 °F 78 °F (2017)
Min Temperature 37 °F 40 °F 32 °F (2018)
Degree Days  
Heating Degree Days 9    
Growing Degree Days 6 (Base 50)    
Moisture  
Dew Point 24 °F    
Average Humidity 31    
Maximum Humidity 49    
Minimum Humidity 13    
Precipitation  
Precipitation 0.00 in - - ()
Sea Level Pressure  
Sea Level Pressure 30.08 in    
Wind  
Wind Speed 4 mph ()    
Max Wind Speed 14 mph    
Max Gust Speed 20 mph    
Visibility 9.3 miles    
Events      
Averages and records for this station are not official NWS values.
T = Trace of Precipitation, MM = Missing Value Source: Averaged Metar Reports

Daily Weather History Graph

Daily Weather History Graph

Search for Another Location

Airport or City:

Astronomy

Oct. 16, 2019 Rise Set
Actual Time 7:00 AM PDT 6:17 PM PDT
Civil Twilight 6:34 AM PDT 6:43 PM PDT
Nautical Twilight 6:05 AM PDT 7:12 PM PDT
Astronomical Twilight 5:36 AM PDT 7:41 PM PDT
Moon 8:19 PM PDT (10/16) 9:31 AM PDT (10/16)
Length of Visible Light 12h 08m
Length of Day
11h 17m
Waning Gibbous, 92% of the Moon is Illuminated
Oct 16
Waning Gibbous
Oct 21
Last Quarter
Oct 27
New
Nov 4
First Quarter
Nov 12
Full

Hourly Weather History & Observations

Time (PDT) Temp. Windchill Dew Point Humidity Pressure Visibility Wind Dir Wind Speed Gust Speed Precip Events Conditions
12:15 AM 41.0 °F 39.0 °F 15.8 °F 36% 30.18 in 10.0 mi ENE 3.5 mph - N/A   Clear
12:35 AM 41.0 °F - 15.8 °F 36% 30.17 in 10.0 mi Calm Calm - N/A   Clear
12:55 AM 39.2 °F 35.0 °F 17.6 °F 42% 30.17 in 10.0 mi SE 5.8 mph - N/A   Clear
1:15 AM 41.0 °F - 17.6 °F 39% 30.17 in 10.0 mi Calm Calm - N/A   Clear
1:35 AM 41.0 °F 37.1 °F 15.8 °F 36% 30.17 in 10.0 mi SE 5.8 mph - N/A   Clear
1:55 AM 41.0 °F - 14.0 °F 33% 30.16 in 10.0 mi Calm Calm - N/A   Clear
2:15 AM 41.0 °F 38.0 °F 15.8 °F 36% 30.16 in 10.0 mi ENE 4.6 mph - N/A   Clear
2:35 AM 37.4 °F - 15.8 °F 41% 30.16 in 10.0 mi Calm Calm - N/A   Clear
2:55 AM 39.2 °F - 15.8 °F 39% 30.15 in 10.0 mi Calm Calm - N/A   Clear
3:15 AM 37.4 °F - 15.8 °F 41% 30.15 in 10.0 mi Calm Calm - N/A   Clear
3:35 AM 37.4 °F 33.8 °F 15.8 °F 41% 30.15 in 10.0 mi ESE 4.6 mph - N/A   Clear
3:55 AM 41.0 °F - 15.8 °F 36% 30.14 in 10.0 mi Calm Calm - N/A   Clear
4:15 AM 39.2 °F 37.0 °F 15.8 °F 39% 30.15 in 9.0 mi East 3.5 mph - N/A   Clear
4:35 AM 37.4 °F - 14.0 °F 38% 30.14 in 10.0 mi Calm Calm - N/A   Clear
4:55 AM 39.2 °F 35.0 °F 17.6 °F 42% 30.14 in 10.0 mi SE 5.8 mph - N/A   Clear
5:15 AM 39.2 °F - 17.6 °F 42% 30.15 in 10.0 mi Calm Calm - N/A   Clear
5:35 AM 37.4 °F - 15.8 °F 41% 30.14 in 10.0 mi Calm Calm - N/A   Clear
5:55 AM 39.2 °F 35.9 °F 19.4 °F 45% 30.14 in 10.0 mi SE 4.6 mph - N/A   Clear
6:15 AM 39.2 °F - 17.6 °F 42% 30.14 in 10.0 mi Calm Calm - N/A   Clear
6:35 AM 41.0 °F - 19.4 °F 42% 30.14 in 10.0 mi Calm Calm - N/A   Clear
7:15 AM 41.0 °F 39.0 °F 23.0 °F 49% 30.14 in 9.0 mi East 3.5 mph - N/A   Clear
7:35 AM 44.6 °F - 23.0 °F 43% 30.14 in 10.0 mi Calm Calm - N/A   Clear
7:55 AM 48.2 °F - 24.8 °F 40% 30.15 in 10.0 mi ESE 5.8 mph - N/A   Clear
8:15 AM 50.0 °F - 24.8 °F 37% 30.15 in 10.0 mi SE 3.5 mph - N/A   Clear
8:35 AM 53.6 °F - 24.8 °F 33% 30.15 in 10.0 mi East 4.6 mph - N/A   Clear
8:55 AM 57.2 °F - 24.8 °F 29% 30.15 in 8.0 mi Calm Calm - N/A   Clear
9:35 AM 68.0 °F - 24.8 °F 20% 30.14 in 10.0 mi ESE 8.1 mph - N/A   Clear
9:55 AM 71.6 °F - 23.0 °F 16% 30.14 in 9.0 mi SE 13.8 mph - N/A   Clear
10:15 AM 71.6 °F - 21.2 °F 15% 30.13 in 10.0 mi ESE 11.5 mph 18.4 mph N/A   Clear
10:35 AM 71.6 °F - 23.0 °F 16% 30.13 in 10.0 mi ESE 12.7 mph 16.1 mph N/A   Clear
10:55 AM 71.6 °F - 21.2 °F 15% 30.13 in 10.0 mi SE 12.7 mph - N/A   Clear
11:15 AM 73.4 °F - 19.4 °F 13% 30.12 in 9.0 mi East 12.7 mph 18.4 mph N/A   Clear
11:35 AM 75.2 °F - 21.2 °F 13% 30.12 in 10.0 mi ESE 11.5 mph 16.1 mph N/A   Clear
11:55 AM 75.2 °F - 21.2 °F 13% 30.12 in 10.0 mi East 9.2 mph - N/A   Clear
12:15 PM 75.2 °F - 21.2 °F 13% 30.11 in 9.0 mi East 9.2 mph 16.1 mph N/A   Clear
12:35 PM 75.2 °F - 21.2 °F 13% 30.09 in 10.0 mi SE 9.2 mph - N/A   Clear
12:55 PM 75.2 °F - 23.0 °F 14% 30.08 in 6.0 mi ESE 9.2 mph 19.6 mph N/A   Haze
1:15 PM 75.2 °F - 24.8 °F 15% 30.07 in 9.0 mi SSE 11.5 mph - N/A   Clear
1:35 PM 75.2 °F - 23.0 °F 14% 30.06 in 9.0 mi South 5.8 mph - N/A   Clear
1:55 PM 75.2 °F - 23.0 °F 14% 30.05 in 5.0 mi SE 5.8 mph - N/A   Haze
2:15 PM 75.2 °F - 23.0 °F 14% 30.04 in 10.0 mi ESE 5.8 mph - N/A   Clear
2:35 PM 75.2 °F - 23.0 °F 14% 30.02 in 10.0 mi NE 4.6 mph - N/A   Clear
2:55 PM 75.2 °F - 23.0 °F 14% 30.02 in 9.0 mi East 6.9 mph - N/A   Clear
3:15 PM 75.2 °F - 23.0 °F 14% 30.01 in 5.0 mi SE 5.8 mph - N/A   Haze
3:35 PM 75.2 °F - 24.8 °F 15% 30.01 in 10.0 mi ESE 6.9 mph - N/A   Clear
3:55 PM 75.2 °F - 23.0 °F 14% 30.01 in 10.0 mi ENE 3.5 mph - N/A   Clear
4:15 PM 75.2 °F - 23.0 °F 14% 30.00 in 10.0 mi NW 3.5 mph - N/A   Clear
4:35 PM 73.4 °F - 28.4 °F 19% 30.00 in 10.0 mi NW 8.1 mph - N/A   Clear
4:55 PM 71.6 °F - 28.4 °F 20% 29.99 in 10.0 mi NW 9.2 mph - N/A   Clear
5:15 PM 71.6 °F - 30.2 °F 22% 29.99 in 10.0 mi NW 8.1 mph - N/A   Clear
5:35 PM 71.6 °F - 32.0 °F 23% 29.98 in 10.0 mi NW 8.1 mph - N/A   Clear
5:55 PM 68.0 °F - 30.2 °F 24% 29.97 in 10.0 mi NW 5.8 mph - N/A   Clear
6:15 PM 66.2 °F - 32.0 °F 28% 29.98 in 9.0 mi West 4.6 mph - N/A   Clear
6:35 PM 64.4 °F - 32.0 °F 30% 29.98 in 9.0 mi West 4.6 mph - N/A   Clear
6:55 PM 60.8 °F - 33.8 °F 36% 29.99 in 9.0 mi NW 8.1 mph - N/A   Clear
7:15 PM 59.0 °F - 32.0 °F 36% 29.99 in 9.0 mi NW 10.4 mph - N/A   Clear
7:35 PM 59.0 °F - 33.8 °F 39% 30.00 in 8.0 mi SW 8.1 mph - N/A   Clear
7:55 PM 57.2 °F - 33.8 °F 41% 30.00 in 8.0 mi Calm Calm - N/A   Clear
8:15 PM 57.2 °F - 33.8 °F 41% 30.00 in 8.0 mi Calm Calm - N/A   Clear
8:35 PM 57.2 °F - 33.8 °F 41% 30.00 in 8.0 mi West 3.5 mph - N/A   Clear
8:55 PM 55.4 °F - 33.8 °F 44% 29.99 in 8.0 mi West 4.6 mph - N/A   Clear
9:15 PM 55.4 °F - 33.8 °F 44% 30.00 in 8.0 mi WSW 3.5 mph - N/A   Clear
9:35 PM 55.4 °F - 32.0 °F 41% 30.00 in 8.0 mi NNW 3.5 mph - N/A   Clear
9:55 PM 55.4 °F - 32.0 °F 41% 29.99 in 8.0 mi Calm Calm - N/A   Clear
10:15 PM 53.6 °F - 32.0 °F 44% 30.00 in 9.0 mi Calm Calm - N/A   Clear
10:35 PM 53.6 °F - 32.0 °F 44% 29.99 in 9.0 mi Calm Calm - N/A   Clear
10:55 PM 53.6 °F - 32.0 °F 44% 29.99 in 10.0 mi Calm Calm - N/A   Clear
11:15 PM 50.0 °F - 30.2 °F 47% 29.98 in 10.0 mi Calm Calm - N/A   Clear
11:35 PM 53.6 °F - 32.0 °F 44% 29.98 in 10.0 mi WNW 3.5 mph - N/A   Clear
11:55 PM 53.6 °F - 30.2 °F 41% 29.98 in 10.0 mi West 3.5 mph - N/A   Clear